Tracking 29892 objects as of 21-Nov-2024
HD Live streaming from Space Station
objects crossing your sky now

STARLINK-31589

Track STARLINK-31589 now!
10-day predictions
STARLINK-31589 is classified as:


NORAD ID: 59654
Int'l Code: 2024-084A
Perigee: 450.2 km
Apogee: 452.3 km
Inclination: 43.0 °
Period: 93.5 minutes
Semi major axis: 6822 km
RCS: Unknown
Launch date: May 6, 2024
Source: United States (US)
Launch site: AIR FORCE EASTERN TEST RANGE (AFETR)
Your satellite tracking list
Your tracking list is empty




NASA's NSSDC Master Catalog

Two Line Element Set (TLE):
1 59654U 24084A   24325.89251382  .00001579  00000-0  45072-4 0  9995
2 59654  42.9986 206.9405 0001517 278.0560  82.0125 15.40687562 31834
Source of the keplerian elements: AFSPC